contact:dominique.lefevre@mio.osupytheas.fr, maurice.libes@osupytheas.fr, didier.mallarino@osupytheas.fr
Project:EMSO http://www.emso-fr.org/EMSO-France
Depth: 2436.0 m
Title:EMSO Ligure Ouest : Data MII capteur AQUADOPP
Date,Latitude,Longitude,X_East,Y_North,Z_Up,Amplitude_X,Amplitude_Y,Amplitude_Z,Batterie,SoundSpeed,Heading,Pitch,Roll,Pressure,TIS,Speed,Direction
, degrees North, degrees East, m.s-1, m.s-1,m.s-1, 1, 1, 1, Volt, m.s-1, degree, degree, degree, dbar, degree_C, m.s-1, degree
2021-12-02T14:13:17,42.805,6.029,-0.031,-0.042,-0.061,100.0,100.0,99.0,13.4,1505.2,330.9,-0.8,1.8,2470.773,13.28,0.052,216.4
2021-12-02T14:16:04,42.805,6.029,-0.076,0.016,-0.052,101.0,100.0,99.0,13.4,1505.2,331.3,-0.7,1.8,2470.744,13.29,0.077,281.9
2021-12-02T14:19:03,42.805,6.029,-0.057,0.027,-0.005,100.0,100.0,99.0,13.4,1505.2,330.3,-0.7,1.8,2470.699,13.29,0.063,295.3
2021-12-02T14:22:03,42.805,6.029,-0.04,0.011,-0.015,100.0,99.0,100.0,13.3,1505.2,328.2,-0.7,1.8,2470.717,13.29,0.041,285.4
2021-12-02T14:25:03,42.805,6.029,-0.058,-0.002,-0.065,101.0,100.0,99.0,13.4,1505.2,326.3,-0.8,1.8,2470.666,13.29,0.058,268.0
2021-12-02T14:28:03,42.805,6.029,-0.049,0.006,-0.055,99.0,100.0,100.0,13.3,1505.2,329.1,-0.8,1.8,2470.671,13.29,0.049,277.0
2021-12-02T14:31:03,42.805,6.029,-0.056,0.0,-0.039,100.0,98.0,100.0,13.3,1505.2,327.7,-0.7,1.8,2470.624,13.28,0.056,270.0
2021-12-02T14:34:03,42.805,6.029,-0.05,0.017,-0.022,100.0,100.0,99.0,13.3,1505.2,326.1,-0.7,1.8,2470.616,13.28,0.052,288.8
2021-12-02T14:37:03,42.805,6.029,-0.036,0.0,-0.022,99.0,102.0,101.0,13.3,1505.2,329.3,-0.8,1.8,2470.609,13.28,0.036,270.0
2021-12-02T14:40:03,42.805,6.029,-0.077,0.0,-0.026,99.0,101.0,100.0,13.4,1505.2,329.7,-0.7,1.8,2470.628,13.28,0.076,270.0
2021-12-02T14:43:03,42.805,6.029,-0.028,0.009,0.009,101.0,100.0,99.0,13.4,1505.2,327.7,-0.7,1.9,2470.62,13.28,0.029,287.8
2021-12-02T14:46:03,42.805,6.029,-0.064,0.011,-0.015,100.0,102.0,99.0,13.4,1505.2,328.8,-0.8,1.8,2470.593,13.28,0.064,279.8
2021-12-02T14:49:03,42.805,6.029,-0.019,-0.008,0.015,100.0,100.0,99.0,13.4,1505.2,327.5,-0.7,1.8,2470.584,13.28,0.02,247.2
2021-12-02T14:52:03,42.805,6.029,-0.047,-0.007,-0.034,100.0,99.0,99.0,13.4,1505.2,326.1,-0.7,1.8,2470.601,13.28,0.047,261.5
2021-12-02T14:55:03,42.805,6.029,-0.038,-0.012,-0.024,99.0,100.0,99.0,13.4,1505.2,331.3,-0.8,1.8,2470.596,13.28,0.039,252.5
2021-12-02T14:58:03,42.805,6.029,-0.038,0.014,-0.005,101.0,98.0,100.0,13.3,1505.2,326.3,-0.7,1.8,2470.535,13.28,0.04,290.2
2021-12-02T15:04:03,42.805,6.029,-0.057,0.001,0.0,99.0,99.0,99.0,13.3,1505.2,325.0,-0.8,1.8,2470.596,13.28,0.057,271.0
2021-12-02T15:07:03,42.805,6.029,-0.034,-0.012,-0.027,100.0,100.0,100.0,13.4,1505.2,326.2,-0.7,1.8,2470.524,13.28,0.036,250.6
2021-12-02T15:10:03,42.805,6.029,-0.063,0.0,0.0,100.0,101.0,98.0,13.4,1505.2,331.7,-0.8,1.8,2470.563,13.28,0.062,270.0
2021-12-02T15:13:03,42.805,6.029,-0.061,0.001,-0.052,100.0,100.0,99.0,13.4,1505.2,329.2,-0.8,1.8,2470.568,13.28,0.061,270.9
2021-12-02T15:16:03,42.805,6.029,-0.061,0.019,-0.01,100.0,100.0,99.0,13.4,1505.2,327.2,-0.7,1.8,2470.614,13.28,0.063,287.3
2021-12-02T15:19:03,42.805,6.029,-0.037,0.035,0.007,100.0,100.0,99.0,13.4,1505.2,326.4,-0.8,1.8,2470.596,13.28,0.05,313.4
2021-12-02T15:22:03,42.805,6.029,-0.049,0.011,0.0,100.0,100.0,99.0,13.4,1505.2,324.5,-0.7,1.8,2470.615,13.28,0.05,282.7
2021-12-02T15:25:03,42.805,6.029,-0.056,-0.007,-0.036,99.0,100.0,100.0,13.3,1505.2,326.2,-0.7,1.8,2470.656,13.28,0.056,262.9
2021-12-02T15:28:03,42.805,6.029,-0.031,0.0,-0.028,100.0,100.0,99.0,13.4,1505.2,329.4,-0.8,1.8,2470.679,13.28,0.03,270.0
2021-12-02T15:31:03,42.805,6.029,-0.043,0.015,-0.027,98.0,99.0,101.0,13.4,1505.2,327.4,-0.7,1.8,2470.663,13.28,0.045,289.2
2021-12-02T15:34:03,42.805,6.029,-0.044,-0.013,-0.04,101.0,99.0,99.0,13.4,1505.2,325.3,-0.7,1.8,2470.707,13.28,0.045,253.5
2021-12-02T15:37:03,42.805,6.029,-0.077,0.019,0.01,100.0,99.0,100.0,13.3,1505.2,326.2,-0.8,1.8,2470.679,13.28,0.079,283.9
2021-12-02T15:40:03,42.805,6.029,-0.051,0.007,-0.027,100.0,100.0,99.0,13.3,1505.2,330.3,-0.7,1.8,2470.686,13.28,0.051,277.8
2021-12-02T15:43:03,42.805,6.029,-0.052,0.005,-0.003,100.0,100.0,100.0,13.3,1505.2,330.0,-0.8,1.8,2470.693,13.28,0.052,275.5
2021-12-02T15:46:03,42.805,6.029,-0.072,-0.004,-0.046,100.0,99.0,100.0,13.4,1505.2,327.9,-0.7,1.8,2470.667,13.28,0.072,266.8
2021-12-02T15:49:03,42.805,6.029,-0.07,0.015,-0.011,99.0,100.0,99.0,13.3,1505.2,328.7,-0.8,1.8,2470.675,13.28,0.071,282.1
2021-12-02T15:52:03,42.805,6.029,-0.08,0.015,-0.001,100.0,100.0,99.0,13.4,1505.2,327.5,-0.7,1.9,2470.658,13.28,0.081,280.6
2021-12-02T15:55:03,42.805,6.029,-0.039,0.005,-0.018,100.0,101.0,99.0,13.4,1505.2,326.7,-0.8,1.8,2470.644,13.28,0.039,277.3
2021-12-02T15:58:03,42.805,6.029,-0.042,0.009,0.005,100.0,100.0,100.0,13.4,1505.2,329.0,-0.8,1.8,2470.621,13.28,0.042,282.1
2021-12-02T16:04:03,42.805,6.029,-0.057,-0.012,-0.031,99.0,100.0,100.0,13.4,1505.2,328.4,-0.8,1.8,2470.635,13.28,0.058,258.1
2021-12-02T16:07:03,42.805,6.029,-0.031,0.016,-0.003,100.0,100.0,100.0,13.4,1505.2,329.6,-0.7,1.8,2470.632,13.28,0.034,297.3
2021-12-02T16:10:03,42.805,6.029,-0.044,0.003,0.011,100.0,101.0,99.0,13.4,1505.2,326.2,-0.8,1.8,2470.654,13.28,0.044,273.9
2021-12-02T16:13:03,42.805,6.029,-0.03,-0.012,-0.007,100.0,100.0,98.0,13.3,1505.2,330.5,-0.7,1.8,2470.629,13.28,0.032,248.2
2021-12-02T16:16:03,42.805,6.029,-0.052,0.005,-0.042,100.0,100.0,100.0,13.3,1505.2,327.8,-0.8,1.8,2470.637,13.28,0.052,275.5
2021-12-02T16:19:03,42.805,6.029,-0.07,0.0,-0.004,99.0,100.0,99.0,13.3,1505.2,330.3,-0.8,1.8,2470.625,13.28,0.069,270.0
2021-12-02T16:22:03,42.805,6.029,-0.051,0.025,0.001,100.0,100.0,99.0,13.4,1505.2,327.4,-0.7,1.8,2470.643,13.28,0.056,296.1
2021-12-02T16:25:03,42.805,6.029,-0.061,0.01,-0.035,100.0,100.0,99.0,13.4,1505.2,326.0,-0.7,1.8,2470.657,13.28,0.061,279.3
2021-12-02T16:28:03,42.805,6.029,-0.053,0.007,-0.033,100.0,101.0,99.0,13.4,1505.2,329.5,-0.8,1.8,2470.645,13.28,0.053,277.5
2021-12-02T16:31:03,42.805,6.029,-0.041,0.013,0.009,101.0,100.0,99.0,13.4,1505.2,328.2,-0.7,1.8,2470.655,13.28,0.043,287.6
2021-12-02T16:34:03,42.805,6.029,-0.044,0.039,0.006,100.0,99.0,99.0,13.3,1505.2,331.6,-0.8,1.8,2470.611,13.28,0.058,311.6
2021-12-02T16:37:03,42.805,6.029,-0.075,0.0,-0.053,99.0,100.0,99.0,13.4,1505.2,325.6,-0.8,1.8,2470.615,13.28,0.074,270.0
2021-12-02T16:40:03,42.805,6.029,-0.033,0.011,-0.008,101.0,98.0,99.0,13.3,1505.2,331.2,-0.8,1.8,2470.623,13.28,0.034,288.4
2021-12-02T16:43:03,42.805,6.029,-0.046,-0.008,-0.027,100.0,101.0,99.0,13.4,1505.2,329.0,-0.8,1.8,2470.621,13.28,0.046,260.1
2021-12-02T16:46:03,42.805,6.029,-0.051,0.003,-0.009,100.0,99.0,100.0,13.4,1505.2,331.4,-0.7,1.8,2470.651,13.28,0.051,273.4
2021-12-02T16:49:03,42.805,6.029,-0.064,0.012,-0.015,99.0,100.0,99.0,13.4,1505.2,329.1,-0.8,1.9,2470.624,13.28,0.065,280.6
2021-12-02T16:52:03,42.805,6.029,-0.042,0.004,-0.041,99.0,99.0,99.0,13.4,1505.2,325.9,-0.8,1.8,2470.657,13.28,0.042,275.4
2021-12-02T16:55:03,42.805,6.029,-0.056,0.007,-0.018,99.0,100.0,99.0,13.4,1505.2,328.5,-0.8,1.8,2470.662,13.28,0.056,277.1
2021-12-02T16:58:03,42.805,6.029,-0.036,-0.022,-0.052,100.0,99.0,99.0,13.4,1505.2,326.5,-0.7,1.8,2470.639,13.28,0.042,238.6
2021-12-02T17:04:03,42.805,6.029,-0.054,0.026,0.012,99.0,100.0,100.0,13.4,1505.2,329.9,-0.7,1.8,2470.709,13.28,0.059,295.7
2021-12-02T17:07:03,42.805,6.029,-0.047,0.014,-0.026,100.0,98.0,99.0,13.4,1505.2,327.2,-0.8,1.8,2470.694,13.28,0.049,286.6
2021-12-02T17:10:03,42.805,6.029,-0.052,0.008,-0.011,100.0,99.0,99.0,13.4,1505.2,326.0,-0.8,1.9,2470.764,13.28,0.052,278.7
2021-12-02T17:13:03,42.805,6.029,-0.055,0.028,0.011,100.0,100.0,99.0,13.3,1505.2,330.4,-0.7,1.8,2470.736,13.28,0.061,297.0
2021-12-02T17:16:03,42.805,6.029,-0.055,0.011,-0.035,100.0,100.0,99.0,13.4,1505.2,329.6,-0.8,1.8,2470.703,13.28,0.056,281.3
2021-12-02T17:19:03,42.805,6.029,-0.055,-0.006,-0.035,99.0,99.0,99.0,13.4,1505.2,326.7,-0.8,1.8,2470.72,13.28,0.055,263.8
2021-12-02T17:22:03,42.805,6.029,-0.04,0.002,-0.017,100.0,100.0,99.0,13.4,1505.2,328.9,-0.7,1.8,2470.738,13.28,0.04,272.9
2021-12-02T17:25:03,42.805,6.029,-0.015,-0.017,-0.024,100.0,100.0,99.0,13.4,1505.2,327.8,-0.7,1.9,2470.711,13.28,0.022,221.4
2021-12-02T17:28:03,42.805,6.029,-0.028,0.0,0.008,100.0,100.0,100.0,13.4,1505.2,329.7,-0.7,1.8,2470.737,13.28,0.028,270.0
2021-12-02T17:31:03,42.805,6.029,-0.047,-0.006,-0.005,102.0,99.0,98.0,13.4,1505.2,329.8,-0.8,1.8,2470.664,13.28,0.047,262.7
2021-12-02T17:34:03,42.805,6.029,-0.059,0.009,-0.044,100.0,99.0,99.0,13.4,1505.2,325.0,-0.7,1.8,2470.729,13.28,0.059,278.7
2021-12-02T17:37:03,42.805,6.029,-0.042,0.009,-0.014,99.0,100.0,100.0,13.4,1505.2,327.1,-0.7,1.8,2470.776,13.28,0.042,282.1
2021-12-02T17:40:03,42.805,6.029,-0.051,-0.008,-0.037,101.0,99.0,99.0,13.4,1505.2,330.1,-0.8,1.8,2470.697,13.28,0.051,261.1
2021-12-02T17:43:03,42.805,6.029,-0.046,0.027,0.01,99.0,100.0,99.0,13.4,1505.2,327.8,-0.8,1.8,2470.702,13.28,0.053,300.4
2021-12-02T17:46:03,42.805,6.029,-0.058,0.006,-0.053,98.0,101.0,100.0,13.3,1505.2,326.0,-0.8,1.8,2470.699,13.28,0.058,275.9
2021-12-02T17:49:03,42.805,6.029,-0.055,0.009,0.0,100.0,99.0,99.0,13.3,1505.2,326.8,-0.8,1.8,2470.742,13.28,0.055,279.3
2021-12-02T17:52:03,42.805,6.029,-0.059,-0.005,-0.041,100.0,100.0,99.0,13.3,1505.2,328.5,-0.8,1.8,2470.722,13.28,0.059,265.2
2021-12-02T17:55:03,42.805,6.029,-0.059,-0.004,-0.036,99.0,99.0,99.0,13.3,1505.2,327.3,-0.8,1.8,2470.696,13.28,0.059,266.1
2021-12-02T17:58:03,42.805,6.029,-0.045,-0.007,-0.049,99.0,99.0,99.0,13.4,1505.2,330.8,-0.8,1.8,2470.702,13.28,0.045,261.2
2021-12-02T18:04:03,42.805,6.029,-0.053,-0.01,-0.037,99.0,99.0,99.0,13.4,1505.2,329.2,-0.8,1.8,2470.737,13.28,0.053,259.3
2021-12-02T18:07:03,42.805,6.029,-0.069,0.0,-0.015,99.0,100.0,99.0,13.3,1505.2,331.3,-0.7,1.8,2470.724,13.28,0.068,270.0
2021-12-02T18:10:03,42.805,6.029,-0.044,-0.005,0.001,102.0,99.0,98.0,13.3,1505.2,326.4,-0.8,1.8,2470.721,13.28,0.044,263.5
2021-12-02T18:13:03,42.805,6.029,-0.044,-0.017,-0.036,100.0,100.0,99.0,13.3,1505.2,328.7,-0.7,1.8,2470.688,13.28,0.047,248.9
2021-12-02T18:16:03,42.805,6.029,-0.07,0.013,-0.006,100.0,99.0,99.0,13.4,1505.2,327.0,-0.8,1.8,2470.71,13.28,0.071,280.5
2021-12-02T18:19:03,42.805,6.029,-0.037,0.004,0.001,99.0,100.0,99.0,13.4,1505.2,325.4,-0.7,1.8,2470.706,13.28,0.037,276.2
2021-12-02T18:22:03,42.805,6.029,-0.043,-0.03,-0.039,100.0,100.0,99.0,13.4,1505.2,326.8,-0.7,1.8,2470.667,13.28,0.052,235.1
2021-12-02T18:25:03,42.805,6.029,-0.047,-0.019,0.001,101.0,99.0,98.0,13.4,1505.2,327.0,-0.7,1.8,2470.715,13.28,0.05,248.0
2021-12-02T18:28:03,42.805,6.029,-0.038,-0.015,-0.039,99.0,99.0,100.0,13.4,1505.2,325.2,-0.8,1.8,2470.723,13.28,0.04,248.5
2021-12-02T18:31:03,42.805,6.029,-0.065,0.011,-0.044,101.0,99.0,98.0,13.4,1505.2,329.0,-0.7,1.8,2470.697,13.28,0.065,279.6
2021-12-02T18:34:03,42.805,6.029,-0.058,0.009,-0.006,100.0,100.0,99.0,13.3,1505.2,330.8,-0.8,1.8,2470.672,13.28,0.058,278.8
2021-12-02T18:37:03,42.805,6.029,-0.054,0.016,-0.025,100.0,99.0,99.0,13.4,1505.2,330.3,-0.8,1.8,2470.713,13.28,0.056,286.5
2021-12-02T18:40:03,42.805,6.029,-0.066,-0.006,-0.04,100.0,99.0,99.0,13.4,1505.2,326.1,-0.8,1.8,2470.683,13.28,0.066,264.8
2021-12-02T18:43:03,42.805,6.029,-0.041,0.007,-0.019,100.0,100.0,99.0,13.4,1505.2,325.4,-0.8,1.8,2470.643,13.28,0.041,279.7
2021-12-02T18:46:03,42.805,6.029,-0.069,0.006,0.0,99.0,99.0,100.0,13.3,1505.2,325.6,-0.8,1.8,2470.688,13.28,0.069,275.0
2021-12-02T18:49:03,42.805,6.029,-0.026,-0.001,-0.019,100.0,100.0,98.0,13.3,1505.2,329.4,-0.7,1.8,2470.707,13.28,0.026,267.8
2021-12-02T18:52:03,42.805,6.029,-0.068,0.004,-0.031,99.0,99.0,100.0,13.4,1505.2,330.8,-0.7,1.8,2470.689,13.28,0.068,273.4
2021-12-02T18:55:03,42.805,6.029,-0.059,0.005,0.015,100.0,100.0,99.0,13.4,1505.2,326.0,-0.8,1.8,2470.68,13.28,0.059,274.8
2021-12-02T18:58:03,42.805,6.029,-0.077,0.028,0.017,100.0,99.0,99.0,13.4,1505.2,326.1,-0.8,1.8,2470.671,13.28,0.081,290.0
2021-12-02T19:04:03,42.805,6.029,-0.066,0.002,0.013,99.0,100.0,99.0,13.4,1505.2,326.0,-0.7,1.8,2470.729,13.28,0.066,271.7
2021-12-02T19:07:03,42.805,6.029,-0.027,0.011,-0.016,100.0,100.0,99.0,13.4,1505.2,326.2,-0.8,1.8,2470.682,13.28,0.029,292.2
2021-12-02T19:10:03,42.805,6.029,-0.073,0.019,-0.017,100.0,100.0,99.0,13.4,1505.2,326.0,-0.7,1.8,2470.722,13.28,0.075,284.6
2021-12-02T19:13:03,42.805,6.029,-0.082,0.021,0.042,100.0,100.0,99.0,13.3,1505.2,327.2,-0.8,1.8,2470.676,13.28,0.084,284.4
2021-12-02T19:16:03,42.805,6.029,-0.068,0.008,-0.029,102.0,99.0,100.0,13.4,1505.2,331.2,-0.7,1.8,2470.704,13.28,0.068,276.7
2021-12-02T19:19:03,42.805,6.029,-0.051,-0.028,-0.071,98.0,100.0,100.0,13.3,1505.2,326.6,-0.8,1.9,2470.701,13.28,0.058,241.2
2021-12-02T19:22:03,42.805,6.029,-0.056,0.011,-0.016,100.0,101.0,100.0,13.3,1505.2,331.4,-0.7,1.8,2470.694,13.28,0.057,281.1
2021-12-02T19:25:03,42.805,6.029,-0.059,-0.001,-0.043,99.0,100.0,99.0,13.4,1505.2,326.3,-0.8,1.8,2470.688,13.28,0.059,269.0
2021-12-02T19:28:03,42.805,6.029,-0.057,0.013,-0.006,100.0,99.0,99.0,13.3,1505.2,330.5,-0.8,1.8,2470.688,13.28,0.058,282.8
2021-12-02T19:31:03,42.805,6.029,-0.07,0.021,-0.016,100.0,99.0,99.0,13.4,1505.2,327.1,-0.8,1.8,2470.659,13.28,0.073,286.7
2021-12-02T19:34:03,42.805,6.029,-0.046,0.006,0.0,99.0,101.0,99.0,13.3,1505.2,327.4,-0.8,1.9,2470.692,13.28,0.046,277.4
2021-12-02T19:37:03,42.805,6.029,-0.067,-0.001,-0.029,98.0,100.0,100.0,13.4,1505.2,329.0,-0.8,1.8,2470.646,13.28,0.067,269.1
2021-12-02T19:40:03,42.805,6.029,-0.047,0.013,-0.009,99.0,100.0,99.0,13.4,1505.2,328.5,-0.8,1.8,2470.655,13.28,0.048,285.5
2021-12-02T19:43:03,42.805,6.029,-0.033,-0.014,-0.021,100.0,100.0,98.0,13.3,1505.2,329.1,-0.8,1.8,2470.659,13.28,0.035,247.0
2021-12-02T19:46:03,42.805,6.029,-0.038,-0.014,-0.014,100.0,100.0,99.0,13.4,1505.2,330.0,-0.7,1.8,2470.653,13.28,0.04,249.8
2021-12-02T19:49:03,42.805,6.029,-0.046,-0.004,-0.032,101.0,100.0,99.0,13.4,1505.2,329.6,-0.7,1.8,2470.658,13.28,0.046,265.0
2021-12-02T19:52:03,42.805,6.029,-0.064,0.007,-0.022,99.0,99.0,100.0,13.4,1505.2,327.6,-0.7,1.8,2470.671,13.28,0.064,276.2
2021-12-02T19:55:03,42.805,6.029,-0.019,-0.005,0.013,100.0,102.0,98.0,13.4,1505.2,325.7,-0.8,1.8,2470.656,13.28,0.019,255.3
2021-12-02T19:58:03,42.805,6.029,-0.054,0.02,0.003,101.0,100.0,98.0,13.4,1505.2,327.4,-0.8,1.8,2470.626,13.28,0.057,290.3
2021-12-02T20:04:03,42.805,6.029,-0.037,0.02,0.029,99.0,100.0,99.0,13.4,1505.2,327.1,-0.7,1.8,2470.665,13.28,0.042,298.4
2021-12-02T20:07:03,42.805,6.029,-0.049,0.01,-0.031,100.0,100.0,99.0,13.4,1505.2,329.4,-0.8,1.9,2470.686,13.28,0.05,281.5
2021-12-02T20:10:03,42.805,6.029,-0.057,0.015,-0.025,100.0,100.0,100.0,13.4,1505.2,328.2,-0.8,1.8,2470.657,13.28,0.058,284.7
2021-12-02T20:13:03,42.805,6.029,-0.026,-0.007,-0.033,100.0,99.0,99.0,13.3,1505.2,324.9,-0.7,1.9,2470.657,13.28,0.026,254.9
2021-12-02T20:16:03,42.805,6.029,-0.062,0.001,-0.029,99.0,99.0,99.0,13.4,1505.2,326.9,-0.8,1.8,2470.676,13.28,0.062,270.9
2021-12-02T20:19:03,42.805,6.029,-0.072,-0.012,-0.052,100.0,100.0,99.0,13.4,1505.2,326.8,-0.8,1.8,2470.657,13.28,0.072,260.5
2021-12-02T20:22:03,42.805,6.029,-0.066,-0.007,-0.032,100.0,99.0,99.0,13.4,1505.2,327.0,-0.8,1.8,2470.71,13.28,0.066,263.9
2021-12-02T20:25:03,42.805,6.029,-0.052,0.01,-0.025,99.0,101.0,99.0,13.3,1505.2,326.9,-0.8,1.8,2470.678,13.28,0.052,280.9
2021-12-02T20:28:03,42.805,6.029,-0.062,0.008,-0.007,100.0,99.0,99.0,13.3,1505.2,326.8,-0.8,1.8,2470.642,13.28,0.062,277.3
2021-12-02T20:31:03,42.805,6.029,-0.058,0.008,-0.021,99.0,101.0,100.0,13.4,1505.2,330.6,-0.7,1.8,2470.656,13.28,0.058,277.8
2021-12-02T20:34:03,42.805,6.029,-0.064,0.004,-0.028,100.0,100.0,100.0,13.4,1505.2,329.0,-0.7,1.8,2470.698,13.28,0.064,273.6
2021-12-02T20:37:03,42.805,6.029,-0.034,0.0,-0.019,99.0,99.0,100.0,13.4,1505.2,328.8,-0.8,1.8,2470.623,13.28,0.034,270.0
2021-12-02T20:40:03,42.805,6.029,-0.032,0.003,0.005,101.0,99.0,99.0,13.3,1505.2,328.6,-0.8,1.9,2470.668,13.28,0.032,275.4
2021-12-02T20:43:03,42.805,6.029,-0.031,0.006,0.008,100.0,99.0,99.0,13.4,1505.2,326.5,-0.7,1.8,2470.659,13.28,0.031,281.0
2021-12-02T20:46:03,42.805,6.029,-0.056,-0.009,-0.035,99.0,100.0,99.0,13.4,1505.2,326.0,-0.7,1.8,2470.611,13.28,0.056,260.9
2021-12-02T20:49:03,42.805,6.029,-0.028,-0.003,-0.044,101.0,99.0,99.0,13.4,1505.2,326.8,-0.8,1.8,2470.595,13.28,0.028,263.9
2021-12-02T20:52:03,42.805,6.029,-0.04,-0.02,-0.048,100.0,100.0,98.0,13.4,1505.2,325.8,-0.8,1.8,2470.639,13.28,0.044,243.4
2021-12-02T20:55:03,42.805,6.029,-0.033,-0.017,-0.037,100.0,100.0,98.0,13.4,1505.2,326.2,-0.7,1.8,2470.652,13.28,0.037,242.7
2021-12-02T20:58:03,42.805,6.029,-0.047,-0.026,-0.049,99.0,100.0,100.0,13.4,1505.2,327.3,-0.7,1.8,2470.651,13.28,0.053,241.1
2021-12-02T21:04:03,42.805,6.029,-0.057,0.01,0.017,100.0,101.0,99.0,13.4,1505.2,326.1,-0.8,1.8,2470.675,13.28,0.057,279.9
2021-12-02T21:07:03,42.805,6.029,-0.036,-0.006,-0.034,101.0,99.0,99.0,13.3,1505.2,326.9,-0.7,1.8,2470.662,13.28,0.036,260.5
2021-12-02T21:10:03,42.805,6.029,-0.057,0.008,-0.018,100.0,100.0,99.0,13.4,1505.2,329.8,-0.7,1.8,2470.609,13.28,0.057,278.0
2021-12-02T21:13:03,42.805,6.029,-0.044,0.007,-0.006,101.0,100.0,100.0,13.4,1505.2,330.1,-0.8,1.8,2470.611,13.28,0.044,279.0
2021-12-02T21:16:03,42.805,6.029,-0.05,0.018,0.034,101.0,99.0,99.0,13.4,1505.2,325.7,-0.8,1.8,2470.595,13.28,0.053,289.8
2021-12-02T21:19:03,42.805,6.029,-0.059,-0.001,-0.012,99.0,99.0,99.0,13.4,1505.2,324.4,-0.8,1.8,2470.579,13.28,0.059,269.0
2021-12-02T21:22:03,42.805,6.029,-0.077,0.01,-0.043,100.0,99.0,99.0,13.4,1505.2,326.6,-0.7,1.8,2470.585,13.28,0.077,277.4
2021-12-02T21:25:03,42.805,6.029,-0.067,-0.008,-0.058,100.0,100.0,100.0,13.4,1505.2,327.1,-0.7,1.8,2470.59,13.28,0.067,263.2
2021-12-02T21:28:03,42.805,6.029,-0.063,0.002,-0.007,100.0,100.0,98.0,13.4,1505.2,327.6,-0.8,1.8,2470.546,13.28,0.063,271.8
2021-12-02T21:31:03,42.805,6.029,-0.032,0.003,-0.004,100.0,100.0,100.0,13.3,1505.2,327.8,-0.7,1.8,2470.551,13.28,0.032,275.4
2021-12-02T21:34:03,42.805,6.029,-0.076,-0.001,-0.039,101.0,101.0,100.0,13.4,1505.2,329.6,-0.7,1.8,2470.526,13.28,0.076,269.2
2021-12-02T21:37:03,42.805,6.029,-0.062,0.011,-0.01,100.0,100.0,99.0,13.4,1505.2,329.6,-0.8,1.9,2470.517,13.28,0.062,280.1
2021-12-02T21:40:03,42.805,6.029,-0.04,0.004,-0.027,101.0,100.0,100.0,13.4,1505.2,326.2,-0.8,1.8,2470.509,13.28,0.04,275.7
2021-12-02T21:43:03,42.805,6.029,-0.07,0.014,-0.016,100.0,98.0,100.0,13.3,1505.2,324.5,-0.7,1.8,2470.566,13.28,0.071,281.3
2021-12-02T21:46:03,42.805,6.029,-0.075,0.011,-0.015,101.0,100.0,99.0,13.3,1505.2,331.6,-0.8,1.8,2470.539,13.28,0.075,278.3
2021-12-02T21:49:03,42.805,6.029,-0.054,-0.019,-0.012,100.0,99.0,100.0,13.4,1505.2,326.9,-0.8,1.8,2470.543,13.28,0.057,250.6
2021-12-02T21:52:03,42.805,6.029,-0.04,-0.02,-0.031,100.0,100.0,100.0,13.4,1505.2,328.6,-0.7,1.8,2470.526,13.28,0.044,243.4
2021-12-02T21:55:03,42.805,6.029,-0.06,0.007,-0.023,99.0,100.0,99.0,13.4,1505.2,327.3,-0.8,1.8,2470.5,13.28,0.06,276.7
2021-12-02T21:58:03,42.805,6.029,-0.038,-0.017,-0.034,101.0,103.0,99.0,13.3,1505.2,330.2,-0.8,1.8,2470.498,13.28,0.041,245.9
2021-12-02T22:04:03,42.805,6.029,-0.048,0.007,0.007,101.0,99.0,100.0,13.4,1505.2,326.2,-0.7,1.8,2470.56,13.28,0.048,278.3
2021-12-02T22:07:03,42.805,6.029,-0.052,0.004,-0.017,100.0,100.0,99.0,13.4,1505.2,328.9,-0.8,1.8,2470.499,13.28,0.052,274.4
2021-12-02T22:10:03,42.805,6.029,-0.07,0.001,-0.011,100.0,99.0,99.0,13.4,1505.2,329.4,-0.8,1.8,2470.525,13.28,0.07,270.8
2021-12-02T22:13:03,42.805,6.029,-0.059,-0.006,-0.028,100.0,99.0,99.0,13.4,1505.2,326.8,-0.8,1.8,2470.496,13.28,0.059,264.2
2021-12-02T22:16:03,42.805,6.029,-0.057,0.008,-0.017,99.0,99.0,100.0,13.4,1505.2,325.1,-0.8,1.8,2470.488,13.28,0.057,278.0
2021-12-02T22:19:03,42.805,6.029,-0.059,0.018,0.002,100.0,99.0,100.0,13.4,1505.2,327.9,-0.7,1.9,2470.503,13.28,0.061,287.0
2021-12-02T22:22:03,42.805,6.029,-0.073,0.009,-0.028,101.0,100.0,99.0,13.4,1505.2,329.0,-0.8,1.8,2470.504,13.28,0.073,277.0
2021-12-02T22:25:03,42.805,6.029,-0.034,-0.023,-0.016,100.0,99.0,99.0,13.4,1505.2,329.5,-0.8,1.8,2470.491,13.28,0.041,235.9
2021-12-02T22:28:03,42.805,6.029,-0.096,0.009,-0.038,99.0,99.0,100.0,13.4,1505.2,328.1,-0.8,1.9,2470.51,13.28,0.096,275.4
2021-12-02T22:31:03,42.805,6.029,-0.041,-0.023,-0.049,100.0,99.0,99.0,13.3,1505.2,326.7,-0.8,1.8,2470.545,13.28,0.047,240.7
2021-12-02T22:34:03,42.805,6.029,-0.006,0.008,0.0,100.0,100.0,99.0,13.4,1505.2,326.3,-0.7,1.8,2470.55,13.28,0.01,323.1
2021-12-02T22:37:03,42.805,6.029,-0.05,0.008,-0.04,101.0,99.0,100.0,13.4,1505.2,326.6,-0.8,1.8,2470.542,13.28,0.05,279.1
2021-12-02T22:40:03,42.805,6.029,-0.064,-0.003,-0.036,98.0,100.0,100.0,13.4,1505.2,328.3,-0.7,1.8,2470.47,13.28,0.064,267.3
2021-12-02T22:43:03,42.805,6.029,-0.067,-0.003,0.006,100.0,100.0,99.0,13.4,1505.2,327.4,-0.7,1.8,2470.506,13.28,0.067,267.4
2021-12-02T22:46:03,42.805,6.029,-0.062,0.0,-0.054,98.0,101.0,98.0,13.4,1505.2,331.4,-0.8,1.8,2470.499,13.28,0.061,270.0
2021-12-02T22:49:03,42.805,6.029,-0.067,-0.009,-0.042,99.0,100.0,100.0,13.4,1505.2,329.5,-0.7,1.8,2470.528,13.28,0.067,262.3
2021-12-02T22:52:03,42.805,6.029,-0.05,0.003,-0.025,99.0,99.0,100.0,13.4,1505.2,331.0,-0.7,1.8,2470.538,13.28,0.05,273.4
2021-12-02T22:55:03,42.805,6.029,-0.062,0.008,-0.008,100.0,100.0,99.0,13.4,1505.2,325.0,-0.7,1.8,2470.536,13.28,0.062,277.3
2021-12-02T22:58:03,42.805,6.029,-0.076,-0.006,-0.008,100.0,100.0,99.0,13.4,1505.2,329.2,-0.8,1.8,2470.545,13.28,0.076,265.5
2021-12-02T23:04:03,42.805,6.029,-0.05,0.0,-0.029,100.0,100.0,99.0,13.4,1505.2,325.0,-0.8,1.8,2470.584,13.28,0.05,270.0
2021-12-02T23:07:03,42.805,6.029,-0.037,-0.006,-0.033,99.0,99.0,99.0,13.4,1505.2,326.6,-0.8,1.8,2470.527,13.28,0.037,260.8
2021-12-02T23:10:03,42.805,6.029,-0.042,0.014,0.02,99.0,101.0,98.0,13.4,1505.2,328.1,-0.8,1.8,2470.547,13.28,0.044,288.4
2021-12-02T23:13:03,42.805,6.029,-0.031,-0.001,-0.024,100.0,101.0,99.0,13.3,1505.2,329.0,-0.7,1.8,2470.54,13.28,0.031,268.2
2021-12-02T23:16:03,42.805,6.029,-0.043,-0.002,0.004,101.0,100.0,99.0,13.4,1505.2,330.1,-0.8,1.8,2470.503,13.28,0.043,267.3
2021-12-02T23:19:03,42.805,6.029,-0.051,-0.005,-0.004,98.0,100.0,100.0,13.4,1505.2,325.9,-0.8,1.8,2470.523,13.28,0.051,264.4
2021-12-02T23:22:03,42.805,6.029,-0.082,0.007,-0.017,100.0,100.0,99.0,13.4,1505.2,328.4,-0.8,1.8,2470.534,13.28,0.082,274.9
2021-12-02T23:25:03,42.805,6.029,-0.043,0.008,-0.035,100.0,99.0,99.0,13.4,1505.2,327.0,-0.8,1.9,2470.506,13.28,0.043,280.5
2021-12-02T23:28:03,42.805,6.029,-0.058,-0.006,0.006,100.0,99.0,99.0,13.3,1505.2,331.7,-0.8,1.8,2470.504,13.28,0.058,264.1
2021-12-02T23:31:03,42.805,6.029,-0.065,0.002,-0.037,101.0,99.0,99.0,13.4,1505.2,327.4,-0.8,1.8,2470.512,13.28,0.065,271.8
2021-12-02T23:34:03,42.805,6.029,-0.072,0.006,-0.034,100.0,100.0,99.0,13.3,1505.2,331.1,-0.8,1.8,2470.512,13.28,0.072,274.8
2021-12-02T23:37:03,42.805,6.029,-0.028,0.003,-0.004,99.0,100.0,99.0,13.3,1505.2,329.7,-0.8,1.8,2470.532,13.28,0.028,276.1
2021-12-02T23:40:03,42.805,6.029,-0.072,0.008,-0.014,100.0,100.0,99.0,13.3,1505.2,327.4,-0.7,1.8,2470.508,13.28,0.072,276.3
2021-12-02T23:43:03,42.805,6.029,-0.059,0.007,-0.045,100.0,99.0,99.0,13.4,1505.2,330.2,-0.7,1.8,2470.491,13.28,0.059,276.8
2021-12-02T23:46:03,42.805,6.029,-0.041,-0.004,-0.006,100.0,101.0,99.0,13.3,1505.2,329.3,-0.8,1.8,2470.499,13.28,0.041,264.4
2021-12-02T23:49:03,42.805,6.029,-0.032,-0.014,-0.026,99.0,99.0,99.0,13.3,1505.2,325.4,-0.8,1.8,2470.472,13.28,0.034,246.4
2021-12-02T23:52:03,42.805,6.029,-0.049,-0.009,-0.024,100.0,100.0,101.0,13.4,1505.2,327.4,-0.8,1.8,2470.431,13.28,0.049,259.6
2021-12-02T23:55:03,42.805,6.029,-0.056,0.018,-0.02,100.0,100.0,99.0,13.3,1505.2,327.1,-0.8,1.8,2470.47,13.28,0.058,287.8
2021-12-02T23:58:03,42.805,6.029,-0.07,-0.002,-0.031,100.0,100.0,99.0,13.4,1505.2,329.9,-0.8,1.8,2470.459,13.28,0.07,268.4
